This is the latest recevied weather packets stored in our database for station/object F5PHW-13. If no packets are shown the sender has not sent any weather packets the latest 10 day(s).
| Time | Temp. | Humidity | Pressure | Rain* | Wind** | Luminosity | Snow |
|---|---|---|---|---|---|---|---|
| 1777797078 | 15° C | 86% | 1009 hPa | 0 mm | - | - | - |
| 1777795878 | 14.44° C | 88% | 1009 hPa | 0 mm | - | - | - |
| 1777794682 | 14.44° C | 89% | 1009 hPa | 0 mm | - | - | - |
| 1777793479 | 14.44° C | 89% | 1009 hPa | 0 mm | - | - | - |
| 1777792280 | 14.44° C | 89% | 1008.9 hPa | 0 mm | - | - | - |
| 1777791081 | 13.89° C | 89% | 1008.8 hPa | 0 mm | - | - | - |
| 1777789880 | 13.33° C | 89% | 1008.8 hPa | 0 mm | - | - | - |
| 1777788679 | 13.33° C | 89% | 1008.6 hPa | 0 mm | - | - | - |
| 1777787480 | 13.33° C | 89% | 1008.6 hPa | 0 mm | - | - | - |
| 1777786280 | 13.33° C | 89% | 1008.4 hPa | 0 mm | - | - | - |
| 1777785080 | 12.78° C | 88% | 1008.5 hPa | 0 mm | - | - | - |
| 1777783880 | 13.33° C | 88% | 1008.4 hPa | 0 mm | - | - | - |
| 1777782678 | 13.33° C | 88% | 1008.4 hPa | 0 mm | - | - | - |
| 1777781480 | 13.89° C | 88% | 1008.5 hPa | 0.25 mm | - | - | - |
| 1777780279 | 13.89° C | 88% | 1008.6 hPa | 0 mm | - | - | - |
| 1777779079 | 13.89° C | 88% | 1008.7 hPa | 0.25 mm | - | - | - |
| 1777777880 | 13.33° C | 88% | 1008.7 hPa | 0 mm | - | - | - |
| 1777776679 | 13.33° C | 88% | 1008.8 hPa | 0 mm | - | - | - |
| 1777775480 | 13.33° C | 88% | 1008.9 hPa | 0 mm | - | - | - |
| 1777774280 | 13.33° C | 88% | 1009.1 hPa | 0 mm | - | - | - |
| 1777773080 | 13.33° C | 88% | 1009.2 hPa | 0 mm | - | - | - |
| 1777771880 | 13.33° C | 87% | 1009.3 hPa | 0 mm | - | - | - |
| 1777770680 | 13.33° C | 87% | 1009.3 hPa | 0 mm | - | - | - |
| 1777769479 | 13.33° C | 87% | 1009.4 hPa | 0 mm | - | - | - |
| 1777768280 | 13.33° C | 87% | 1009.8 hPa | 0 mm | - | - | - |
* Rain latest hour (hover to see other rain measurements)
** Current wind speed in m/s (hover to see current wind gust speed)